[[{"header":{"parameterUnit":"m.s-1","parameterCategory":1,"la1":30.2991,"la2":30.254,"lo1":-89.0895,"lo2":-89.0444,"dy":0.0017,"dx":0.0017,"nx":28,"ny":28,"refTime":"2024-02-22T03:00:00:Z","depth":0,"parameterNumber":2,"parameterNumberName":"U-component_of_WINDS"},"data":[0,0,0,0,0,0,0,0,0,0,0,0,0,0,0,0,0,0,0,0,0,0,0,0,0,0,0,0,0,0,0,0,0,0,0,0,0,0,0,0,0,0,0,0,0,0,0,0,0,0,0,0,0,0,0,0,0,0,2.7063,2.7063,0,2.7079,2.7079,2.7079,2.7045,2.7044,2.7042,2.7041,2.7058,2.706,2.7061,0,0,0,0,0,0,0,0,0,0,0,0,0,2.7005,2.7007,2.7063,2.7063,2.7063,2.7079,2.7079,2.7079,2.7045,2.7043,2.7042,2.7041,2.7058,2.7059,2.7061,0,0,0,0,0,0,0,0,0,0,0,0,0,2.7027,2.7007,2.7063,2.7048,2.7047,2.7079,2.7079,2.7079,2.7045,2.7043,2.7042,2.704,2.7057,2.7059,2.7061,2.7109,0,0,2.7068,2.7069,0,0,0,0,0,0,0,0,2.7026,2.7029,2.705,2.7049,2.7048,2.7058,2.7065,2.7089,2.7046,2.7046,2.7041,2.7039,2.706,2.7061,2.7068,2.711,2.711,2.7069,2.707,2.7071,2.7071,0,0,0,0,0,0,0,2.7024,2.7028,2.7069,2.705,2.7049,2.7041,2.7043,2.7069,2.7062,2.7046,2.7043,2.7046,2.7059,2.7066,2.7068,2.7111,2.7068,2.707,2.7072,2.7073,2.7195,2.7197,0,0,0,0,0,0,2.7024,2.7027,2.7069,2.707,2.7032,2.7044,2.7045,2.7057,2.7062,2.7061,2.7047,2.7044,2.7063,2.7066,2.7069,2.7127,2.7071,2.7073,2.7074,2.7194,2.7196,2.7198,0,0,0,0,0,0,2.7023,2.7028,2.7068,2.7048,2.7052,2.7047,2.706,2.7058,2.7065,2.7062,2.7061,2.7056,2.7062,2.7066,2.71,2.7127,2.7074,2.7076,2.7191,2.7194,2.7197,2.7241,0,0,0,0,0,0,2.7022,2.7028,2.7045,2.7048,2.7054,2.7098,2.7061,2.7059,2.7069,2.7065,2.707,2.707,2.7061,2.7097,2.7102,2.7129,2.7078,2.7189,2.7193,2.7196,2.7237,2.7245,2.7252,0,0,0,0,0,2.702,2.7057,2.7046,2.7051,2.7075,2.71,2.7103,2.7092,2.7071,2.7089,2.7088,2.707,2.7123,2.7101,2.7106,2.7134,2.7187,2.7192,2.7196,2.7234,2.7244,2.7252,0,0,0,0,0,0,2.7056,2.7057,2.7045,2.7084,2.7092,2.7094,2.7116,2.7102,2.7116,2.7112,2.7098,2.7099,2.7137,2.7139,2.7114,2.7182,2.7152,2.7157,2.7179,2.7188,2.7195,2.7194,2.708,0,0,0,0,0,2.7069,2.7088,2.7088,2.7123,2.7127,2.7121,2.7132,2.7123,2.7131,2.7134,2.7135,2.7144,2.7163,2.7176,2.7193,2.7238,2.724,2.726,2.7267,2.7274,2.7279,2.7305,2.7315,2.7212,2.7212,2.7212,0,0,2.7095,2.7097,2.7111,2.713,2.7135,2.7157,2.7124,2.7148,2.7165,2.7137,2.717,2.7172,2.7181,2.7222,2.724,2.7225,2.7308,2.7279,2.7284,2.7286,2.7311,2.732,2.7329,2.7215,2.7214,2.7214,0,0,2.7153,2.7157,2.7187,2.7194,2.7203,2.7199,2.7206,2.7211,2.7211,2.7244,2.7225,2.7245,2.7277,2.7285,2.7294,2.736,2.7344,2.7366,2.7404,2.743,2.7438,2.7445,2.747,2.7479,2.7371,2.7371,2.7371,0,2.7184,2.7216,2.7204,2.723,2.724,2.7218,2.725,2.7257,2.7271,2.7279,2.7262,2.7304,2.7308,2.7352,2.7368,2.7375,2.7385,2.7365,2.7438,2.7445,2.7452,2.7475,2.7485,2.7374,2.7373,2.7373,2.7373,0,2.7255,2.7278,2.7301,2.7316,2.7329,2.7358,2.7352,2.7366,2.7357,2.7356,2.7391,2.7396,2.7415,2.7425,2.7415,2.7468,2.7459,2.744,2.7409,2.7464,2.7486,2.7495,2.7377,2.7376,2.7376,2.7375,0,0,2.7335,2.7345,2.7354,2.7362,2.7372,2.7389,2.7419,2.7438,2.7451,2.7463,2.7488,2.7517,2.7501,2.7511,2.7503,2.7526,2.758,2.7505,2.7505,2.7519,2.7641,2.7655,2.7665,2.757,2.7572,2.7573,2.764,0,2.7394,2.7443,2.7435,2.7483,2.7505,2.7486,2.7512,2.7521,2.7521,2.7541,2.7541,2.7563,2.7539,2.7546,2.7567,2.7569,2.7604,2.7564,2.7594,2.7595,2.7593,2.7677,2.7691,2.7754,2.7649,2.765,2.7651,0,2.7469,2.7484,2.7535,2.7544,2.7553,2.7576,2.7594,2.7613,2.7625,2.7623,2.7636,2.7625,2.7655,2.7625,2.7668,2.7641,2.7653,2.7656,2.7658,2.7661,2.7627,2.7682,2.7774,2.7784,2.7664,2.7663,2.7662,0,2.7524,2.7557,2.7593,2.76,2.7611,2.7628,2.7633,2.7643,2.7656,2.7673,2.7682,2.7701,2.7712,2.7729,2.7724,2.7702,2.7769,2.7737,2.777,2.777,2.7784,2.7784,2.788,2.7792,2.7792,2.7791,2.7791,0,2.7591,2.7623,2.7618,2.7639,2.7676,2.7667,2.7704,2.7707,2.7717,2.774,2.7724,2.7747,2.7739,2.7761,2.7758,2.7795,2.78,2.7801,2.78,2.7802,2.7803,2.781,2.7806,2.7794,2.7793,2.7793,2.7792,0,2.7658,2.7655,2.7693,2.7701,2.7704,2.7731,2.7738,2.776,2.776,2.779,2.7796,2.7797,2.7823,2.782,2.7848,2.7846,2.7893,2.7886,2.7889,2.7888,2.7921,2.7919,2.8026,2.8041,2.7942,2.7943,2.7944,0,2.7701,2.7725,2.7737,2.7752,2.7759,2.7782,2.7796,2.7789,2.7805,2.7822,2.7842,2.7866,2.7885,2.7928,2.7932,2.7954,2.7948,2.7985,2.7951,2.7955,2.795,2.7949,2.7953,2.7991,2.7992,2.7993,2.7994,0,2.7778,2.7776,2.7797,2.7818,2.7835,2.7851,2.7865,2.7879,2.7874,2.7892,2.7919,2.7934,2.7964,2.799,2.8012,2.8019,2.8006,2.8005,2.8013,2.8017,2.8018,2.8019,2.7908,2.8002,2.8001,2.8,2.8,2.8,2.7835,2.7857,2.7869,2.7893,2.7904,2.7919,2.794,2.7944,2.7966,2.799,2.7986,2.8016,2.803,2.8059,2.8068,2.8093,2.808,2.8092,2.8096,2.8099,2.8104,2.8014,2.8097,2.8097,2.8096,2.8096,2.8096,0,2.7912,2.792,2.7942,2.7964,2.7984,2.7971,2.7987,2.8005,2.8032,2.8046,2.8066,2.8098,2.8124,2.813,2.8155,2.8174,2.8169,2.8181,2.818,2.8182,2.8113,2.8103,2.8185,2.8185,2.8185,2.8185,2.8185,2.8185,2.7955,2.7992,2.7993,2.8036,2.8044,2.8074,2.8085,2.8099,2.8111,2.8147,2.8168,2.8173,2.8185,2.8211,2.8234,2.8236,2.8246,2.8261,2.826,2.8195,2.8186,2.8178,2.8169,2.8263,2.8263,2.8327,2.8327,2.8328]},{"header":{"parameterUnit":"m.s-1","parameterCategory":1,"la1":30.2991,"la2":30.254,"lo1":-89.0895,"lo2":-89.0444,"dy":0.0017,"dx":0.0017,"nx":28,"ny":28,"refTime":"2024-02-22T03:00:00:Z","depth":0,"parameterNumber":3,"parameterNumberName":"V-component_of_WINDS"},"data":[0,0,0,0,0,0,0,0,0,0,0,0,0,0,0,0,0,0,0,0,0,0,0,0,0,0,0,0,0,0,0,0,0,0,0,0,0,0,0,0,0,0,0,0,0,0,0,0,0,0,0,0,0,0,0,0,0,0,-4.9618,-4.9619,0,-4.9697,-4.9698,-4.9699,-4.969,-4.9688,-4.9687,-4.9686,-4.9764,-4.9767,-4.977,0,0,0,0,0,0,0,0,0,0,0,0,0,-4.9458,-4.9461,-4.9618,-4.9619,-4.962,-4.9697,-4.9698,-4.9699,-4.969,-4.9688,-4.9687,-4.9685,-4.9763,-4.9767,-4.9771,0,0,0,0,0,0,0,0,0,0,0,0,0,-4.9531,-4.9462,-4.9618,-4.9625,-4.9626,-4.9697,-4.9698,-4.97,-4.969,-4.9688,-4.9686,-4.9685,-4.9762,-4.9766,-4.9771,-4.9839,0,0,-4.9786,-4.9788,0,0,0,0,0,0,0,0,-4.9527,-4.9537,-4.9623,-4.9625,-4.9626,-4.9682,-4.967,-4.9746,-4.9691,-4.9666,-4.9686,-4.9684,-4.9738,-4.9745,-4.9764,-4.9843,-4.9846,-4.9787,-4.979,-4.9792,-4.9793,0,0,0,0,0,0,0,-4.9522,-4.9534,-4.9649,-4.9624,-4.9626,-4.9624,-4.9632,-4.9685,-4.9711,-4.9668,-4.9667,-4.9677,-4.9738,-4.9759,-4.9765,-4.9848,-4.9786,-4.9791,-4.9794,-4.9796,-4.9989,-4.9991,0,0,0,0,0,0,-4.9516,-4.953,-4.9647,-4.9652,-4.9571,-4.9628,-4.9637,-4.9666,-4.9711,-4.9716,-4.9679,-4.9676,-4.9751,-4.976,-4.9768,-4.9852,-4.9792,-4.9796,-4.9799,-4.9987,-4.9989,-4.9992,0,0,0,0,0,0,-4.9512,-4.9526,-4.9644,-4.9591,-4.9606,-4.9633,-4.9665,-4.9668,-4.9689,-4.9719,-4.9724,-4.9695,-4.975,-4.9761,-4.9822,-4.9855,-4.9798,-4.9803,-4.9984,-4.9987,-4.999,-5.002,0,0,0,0,0,0,-4.9508,-4.9525,-4.9551,-4.9591,-4.9608,-4.9697,-4.9667,-4.9671,-4.9698,-4.9695,-4.9735,-4.974,-4.975,-4.9815,-4.9827,-4.986,-4.9807,-4.9981,-4.9986,-4.9989,-5.0016,-5.0024,-5.003,0,0,0,0,0,-4.9502,-4.9555,-4.9553,-4.9567,-4.9642,-4.9699,-4.9709,-4.9719,-4.97,-4.9727,-4.9747,-4.9739,-4.9849,-4.9821,-4.9835,-4.987,-4.9979,-4.9984,-4.9989,-5.0013,-5.0022,-5.003,0,0,0,0,0,0,-4.9517,-4.9561,-4.9558,-4.9626,-4.9659,-4.9697,-4.9731,-4.9729,-4.9767,-4.9763,-4.9774,-4.9783,-4.9845,-4.9864,-4.9832,-4.9939,-4.9912,-4.9919,-4.9925,-4.9934,-4.9941,-4.9935,-4.9811,0,0,0,0,0,-4.9528,-4.9572,-4.9607,-4.9664,-4.9681,-4.9703,-4.9728,-4.9734,-4.9768,-4.9782,-4.9806,-4.9839,-4.9881,-4.9909,-4.9949,-5.0019,-5.0028,-5.005,-5.0057,-5.0062,-5.0069,-5.0109,-5.0119,-5.0008,-5.0008,-5.0008,0,0,-4.9552,-4.9581,-4.9607,-4.9668,-4.9694,-4.9738,-4.9715,-4.9762,-4.9796,-4.9789,-4.9849,-4.9868,-4.9905,-4.9971,-5.0002,-4.9989,-5.0102,-5.0069,-5.0073,-5.0077,-5.0115,-5.0125,-5.0135,-5.0011,-5.0011,-5.001,0,0,-4.9617,-4.9644,-4.9695,-4.9722,-4.9763,-4.9778,-4.979,-4.9829,-4.9842,-4.9903,-4.9899,-4.9939,-5.0011,-5.0038,-5.0061,-5.014,-5.0135,-5.0153,-5.019,-5.0228,-5.0237,-5.0245,-5.0274,-5.0284,-5.016,-5.016,-5.016,0,-4.9641,-4.9709,-4.9721,-4.977,-4.9797,-4.9795,-4.9846,-4.9872,-4.9923,-4.9942,-4.9927,-5.0019,-5.0044,-5.0117,-5.0137,-5.0155,-5.017,-5.0148,-5.0235,-5.0243,-5.025,-5.0278,-5.0289,-5.0162,-5.0161,-5.0161,-5.0161,0,-4.9736,-4.9783,-4.9819,-4.9871,-4.9902,-4.9952,-4.9972,-5.0002,-5.0005,-5.0022,-5.0084,-5.0115,-5.0162,-5.018,-5.0183,-5.0254,-5.0245,-5.0233,-5.0205,-5.0263,-5.0289,-5.03,-5.0165,-5.0164,-5.0163,-5.0163,0,0,-4.9812,-4.9871,-4.9884,-4.9908,-4.9954,-4.9991,-5.0041,-5.0089,-5.0115,-5.0151,-5.0193,-5.0256,-5.0245,-5.0272,-5.0278,-5.0312,-5.0374,-5.0296,-5.0297,-5.031,-5.0455,-5.0465,-5.0477,-5.0371,-5.0373,-5.0375,-5.0453,0,-4.9882,-4.9972,-4.9986,-5.0065,-5.0109,-5.0109,-5.0153,-5.0186,-5.0203,-5.0243,-5.0262,-5.0306,-5.0289,-5.0305,-5.0338,-5.0359,-5.0403,-5.0354,-5.0411,-5.0413,-5.0401,-5.049,-5.05,-5.0572,-5.0463,-5.0464,-5.0466,0,-4.9976,-5.0017,-5.0101,-5.0143,-5.0161,-5.0201,-5.0247,-5.0285,-5.0322,-5.0333,-5.0364,-5.0367,-5.0419,-5.039,-5.0463,-5.0429,-5.0453,-5.0467,-5.047,-5.0476,-5.0442,-5.0498,-5.0595,-5.0606,-5.0482,-5.0481,-5.0479,0,-5.0023,-5.0099,-5.016,-5.018,-5.023,-5.0258,-5.028,-5.0316,-5.0345,-5.0384,-5.0403,-5.0448,-5.0473,-5.0508,-5.0523,-5.05,-5.0595,-5.0567,-5.0605,-5.0605,-5.0624,-5.0623,-5.0726,-5.064,-5.064,-5.064,-5.064,0,-5.0101,-5.0152,-5.0182,-5.0219,-5.0277,-5.0293,-5.035,-5.0371,-5.0403,-5.0444,-5.0447,-5.0485,-5.0503,-5.0545,-5.0557,-5.0616,-5.0627,-5.0636,-5.0639,-5.0636,-5.0635,-5.0652,-5.0648,-5.0643,-5.0642,-5.0641,-5.0641,0,-5.0163,-5.0185,-5.0251,-5.0294,-5.0306,-5.0347,-5.0383,-5.042,-5.0438,-5.049,-5.0503,-5.0532,-5.0581,-5.06,-5.0659,-5.0668,-5.0736,-5.0734,-5.0723,-5.0724,-5.0762,-5.0758,-5.0879,-5.0897,-5.0799,-5.08,-5.08,0,-5.021,-5.0251,-5.0299,-5.0327,-5.0351,-5.0396,-5.0426,-5.0443,-5.0474,-5.0521,-5.0552,-5.0602,-5.0642,-5.0721,-5.0746,-5.0792,-5.0792,-5.0831,-5.0798,-5.0795,-5.0793,-5.079,-5.0795,-5.0837,-5.0838,-5.0839,-5.0839,0,-5.0293,-5.0303,-5.0346,-5.0394,-5.043,-5.0468,-5.0505,-5.0528,-5.0551,-5.0586,-5.0637,-5.0668,-5.0731,-5.078,-5.0828,-5.085,-5.0849,-5.085,-5.0861,-5.0859,-5.0851,-5.0856,-5.074,-5.0847,-5.0846,-5.0845,-5.0845,-5.0845,-5.035,-5.0386,-5.0426,-5.0475,-5.0505,-5.054,-5.0577,-5.0601,-5.0644,-5.0697,-5.0705,-5.076,-5.0798,-5.0863,-5.0887,-5.093,-5.092,-5.0936,-5.094,-5.0944,-5.0947,-5.0845,-5.0939,-5.0939,-5.0939,-5.0938,-5.0938,0,-5.0433,-5.046,-5.0504,-5.0557,-5.0596,-5.0593,-5.0635,-5.0667,-5.0716,-5.0752,-5.0793,-5.0853,-5.0901,-5.0931,-5.098,-5.1009,-5.101,-5.1021,-5.1019,-5.1024,-5.0953,-5.0939,-5.102,-5.102,-5.102,-5.102,-5.102,-5.102,-5.0481,-5.0543,-5.0557,-5.0634,-5.066,-5.0715,-5.074,-5.0772,-5.0802,-5.0869,-5.091,-5.093,-5.0964,-5.1016,-5.106,-5.1068,-5.1086,-5.1098,-5.1105,-5.1038,-5.1029,-5.1021,-5.1008,-5.1102,-5.1102,-5.1173,-5.1173,-5.1174]}]]